Preview of NWS' New Version of Forecast
This preview is not operational and should not be used for support decisions.

Regional Weather Roundup (RWR)

Issued by National Weather Service (NWS)

                            
000
ASUS43 KDTX 211501
RWRMI 
MICHIGAN HOURLY REGIONAL WEATHER ROUNDUP
NATIONAL WEATHER SERVICE DETROIT/PONTIAC MI
1100 AM EDT SUN APR 21 2019

NOTE: "FAIR" INDICATES FEW OR NO CLOUDS BELOW 12,000 FEET WITH NO
SIGNIFICANT WEATHER AND/OR OBSTRUCTION TO VISIBILITY.

MIZ047>049-052>055-059>063-066>070-074>076-081>083-211600-
SOUTHEAST LOWER MICHIGAN
  
CITY           SKY/WX    TMP DP  RH WIND       PRES   REMARKS
ADRIAN         FAIR      51  44  77 SW5       30.05R                  
ALMA           CLOUDY    56  41  56 SW6       30.03R                  
ANN ARBOR      FAIR      53  45  74 SW5       30.03R                  
BAD AXE        CLOUDY    52  41  66 W8        29.99S                  
CARO           FAIR      51  43  75 SW6       30.01R                  
DETROIT CITY   FAIR      53  42  66 CALM      30.03R                  
DETROIT        FAIR      52  43  71 SW6       30.04R                  
FLINT          FAIR      50  44  80 SW6       30.03R                  
GROSSE ILE     PTSUNNY   49  45  86 S7        30.03S                  
HILLSDALE      CLOUDY    53  43  70 W3        30.03S                  
HOWELL         FAIR      51  45  78 SW7       30.03R                  

CITY           SKY/WX    TMP DP  RH WIND       PRES   REMARKS
JACKSON        PTSUNNY   51  46  83 W7        30.04R                  
LAMBERTVILLE   FAIR      50  46  83 W3        30.05S                  
LANSING        PTSUNNY   54  44  69 SW7       30.04R                  
LAPEER         FAIR      51  43  74 W5        30.03R                  
MASON          PTSUNNY   51  46  80 SW5       30.04R                  
MONROE         CLOUDY    48  47  98 CALM      30.04S                  
MT. CLEMENS    MOSUNNY   55  43  64 CALM      30.01R                  
PONTIAC        FAIR      52  44  74 CALM      30.01R                  
PORT HOPE        N/A     54  41  61 W8        29.97R                  
TRI CITIES     PTSUNNY   52  43  71 SW9       30.02R                  
MIDLAND        PTSUNNY   54  42  64 S3        30.01S                  
TROY           FAIR      55  42  61 CALM      30.04R                  
SAGINAW HB     FAIR      55  43  62 W8        30.01R                  
$$
MIZ043>046-050>051-056>058-064>065-071>073-077>080-211600-
SOUTHWEST LOWER MICHIGAN
  
CITY           SKY/WX    TMP DP  RH WIND       PRES   REMARKS
BATTLE CREEK   FAIR      53  42  66 SW9       30.05R                  
BENTON HARBOR  FAIR      54  31  41 SE6       30.03R                  
BIG RAPIDS     PTSUNNY   57  38  49 SW10      30.00R                  
COLDWATER      CLOUDY    53  48  84 SW5       30.04S                  
FREMONT        FAIR      55  33  43 S7        30.01R                  
HOLLAND        FAIR      56  39  53 S8        30.03R                  
GRAND RAPIDS   PTSUNNY   53  42  66 SW5       30.03R                  
IONIA          CLOUDY    54  39  57 SW7       30.03R                  
KALAMAZOO      PTSUNNY   53  42  66 S6        30.05R                  
LUDINGTON      FAIR      56  21  26 SW9       29.98R                  
MARSHALL       FAIR      52  48  87 CALM      30.05R                  
MOUNT PLEASANT FAIR      58  41  54 SW6       30.01R                  
MUSKEGON       PTSUNNY   56  24  29 S6        30.03R                  
SOUTH HAVEN    FAIR      55  34  45 S3        30.03R                  
$$
MIZ016>042-211600-
NORTHERN LOWER MICHIGAN
  
CITY           SKY/WX    TMP DP  RH WIND       PRES   REMARKS
ALPENA         PTSUNNY   55  25  31 CALM      29.99R                  
BEAVER ISLAND  CLOUDY    49  37  62 SW7       29.97R                  
BELLAIRE       CLOUDY    55  35  46 CALM      29.97S                  
CADILLAC       FAIR      61  32  33 SW6       29.97R                  
CHARLEVOIX     CLOUDY    50  34  54 E6        29.98S                  
FRANKFORT      FAIR      58  33  38 W3        29.96R                  
GAYLORD        CLOUDY    52  28  39 SW6       29.98R                  
HARBOR SPRINGS CLOUDY    51  32  49 CALM      29.97S                  
HOUGHTON LAKE  FAIR      55  35  47 SW6       30.00R                  
MANISTEE       FAIR      58  34  40 S7        29.97R                  
OSCODA         CLOUDY    55  31  39 W5        29.99R                  
PELLSTON       CLOUDY    53  25  33 CALM      29.98R                  
ROGERS CITY    CLOUDY    52  22  30 N6        30.01R                  
TRAVERSE CITY  PTSUNNY   63  38  39 VRB3      29.95R                  
$$
MIZ007>008-015-211600-
EASTERN UPPER MICHIGAN
  
CITY           SKY/WX    TMP DP  RH WIND       PRES   REMARKS
KINROSS        CLOUDY    47  24  40 W3        29.99R                  
MACKINAC ISLAN CLOUDY    48  29  48 W3        29.98R                  
NEWBERRY       LGT RAIN  43  33  66 SE7       29.94F                  
S. S. MARIE    CLOUDY    51  29  42 W5        29.98R                  
MUNISING         N/A     37 N/A N/A NE5       29.96R WCI  33          
$$
MIZ004>006-011>014-085-211600-
CENTRAL UPPER MICHIGAN
  
CITY           SKY/WX    TMP DP  RH WIND       PRES   REMARKS
MANISTIQUE     LGT RAIN  41  33  72 CALM      29.98R                  
ESCANABA       CLOUDY    48  34  58 E7        29.93S                  
MENOMINEE      LGT RAIN  56  34  43 CALM      29.95R                  
SAWYER-GWINN   CLOUDY    43  36  75 N10       29.94S                  
$$
MIZ001>003-009>011-084-211600-
WESTERN UPPER MICHIGAN
  
CITY           SKY/WX    TMP DP  RH WIND       PRES   REMARKS
IRON MOUNTAIN  CLOUDY    53  34  48 N7        29.94R                  
HOUGHTON       PTSUNNY   47  39  74 E7        29.96S                  
COPPER HARBOR    N/A     40  35  83 N5        29.98F                  
IRONWOOD       PTSUNNY   50  42  74 E13       29.94F                  
$$

ABBREVIATIONS USED IN REMARKS
   TC - TEMPERATURE IN CELSIUS
  WCI - WIND CHILL INDEX
   HX - HEAT INDEX
  VSB - VISIBILITY